www.pogodaiklimat.ru

Погода и климат >> Архив погоды >> Эстония >> Таллин


АРХИВ ПОГОДЫ в Таллине

Время (UTC), дата Ветер
(напр.,м/с)
 
Видим.   Явления Облачность Т
(С)
Тd
(С)
f
(%)
Тe
(С)
Тes
(С)
Комфортность P
(гПа)
Po
(гПа)
Тmin
(С)
Tmax
(С)
R
(мм)
R24
(мм)
S
(см)
22 17.03 н/о
23 17.03 н/о
00 18.03 Ю 4 20 км {дождь} 8/4 200 м
[Frnb As trans]
+4.4 +1.9 84 994.9 0.4
01 18.03 Ю 4
{8}
20 км слаб. ливневой дождь 10/10 500 м
[]
+4.3 +2.5 88 -0 -0 тепло 995.1 991.0 +1.9 +5.0
02 18.03 Ю 4
{9}
20 км слаб. ливневой дождь 9/9 480 м
[]
+3.7 +2.1 89 -1 -1 тепло 995.9 991.8 +1.9 +5.0 0.1
03 18.03 Ю 5 20 км {ливн. осадки} 10/8 300 м
[Cb cap As trans Ci sp]
+4.1 +1.9 86 996.1 0.1
04 18.03 Ю 5-11
{11}
20 км {ливн. осадки} 9/9 500 м
[]
+3.9 +1.0 81 -1 -1 тепло 996.2 992.1 +2.0 +5.0 0.1
05 18.03 ЮЗ 4-8
{11}
20 км 10/10 480 м
[]
+3.7 +0.7 81 -1 -1 тепло 996.5 992.5 +2.6 +5.0
06 18.03 Ю 4
{11}
20 км {ливн. осадки} 9/9 300 м
[Cb cap As trans Cs]
+3.5 +1.2 85 -1 -1 тепло 997.1 993.1 +3.3 +5.0 0
07 18.03 Ю 4
{10}
20 км 9/9 450 м
[]
+3.6 +1.1 84 -1 -1 тепло 997.6 993.5 +3.4 +5.0
08 18.03 н/о
09 18.03 Ю 4 20 км {ливн. осадки} 9/9 300 м
[St As trans Cs]
+4.3 +3.4 94 998.7 994.6
10 18.03 Ю 5 20 км н/о +5.2 +0.6 72 +1 +1 тепло 999.0 994.9
11 18.03 Ю 5 20 км н/о +5.7 +0.5 69 +2 +2 тепло 999.2 995.1
12 18.03 Ю 7 11 км ливневой дождь 9/9 600 м
[Cb cap As op]
+4.2 +3.4 95 -2 -1 по сезону 999.9 995.8 0.3
13 18.03 ЮЗ 5 20 км н/о +5.6 +0.7 71 +1 +1 тепло 1000.0 996.0 0.1
14 18.03 Ю 4 20 км н/о +4.7 +1.3 79 +1 +1 тепло 1000.5 996.4
15 18.03 Ю 5-9
{10}
20 км {ливн. осадки} 8/8 300 м
[St As trans Cs]
+4.3 +3.4 94 -1 -1 по сезону 1000.9 996.8 +3.4 +6.0 0.1
16 18.03 Ю 4 20 км н/о +4.2 +0.6 77 0 0 тепло 1001.2 997.2
17 18.03 Ю 3
{9}
н/о +3.6 +0.4 80 -0 -0 тепло 1001.6 997.5 +3.4 +6.0
18 18.03 Ю 4 20 км слаб. ливневой дождь 8/8 600 м
[Cb cap As op Ci sp]
+3.5 +3.4 99 -1 -1 по сезону 1001.7 997.6 +3.4 +6.0
19 18.03 Ю 5 20 км н/о +3.3 +0.6 82 -2 -2 тепло 1002.0 997.9
20 18.03 Ю 4 20 км н/о +3.3 +0.7 83 -1 -1 тепло 1001.9 997.8 0.1
21 18.03 Ю 4 20 км слаб. ливневой дождь 9/9 300 м
[Cb cap As trans Ci fib]
+2.5 +2.5 100 -2 -2 по сезону 1002.1 998.0 0.2
22 18.03 Ю 4 15 км н/о +2.5 +1.3 92 -2 -2 тепло 1002.1 998.0 0.4
23 18.03 Ю 4 17 км н/о +2.3 +1.3 93 -3 -3 тепло 1002.3 998.2 0.1
00 19.03 Ю 3 20 км {ливн. осадки} 9/9 200 м
[Frnb Cc]
+2.4 +2.3 99 -2 -2 по сезону 1002.3 998.2 0.5
01 19.03 Ю 3 20 км н/о +2.3 +1.3 93 -2 -2 тепло 1002.6 998.5
02 19.03 Ю 2 20 км н/о +2.4 +1.5 94 -1 -1 тепло 1002.9 998.8
03 19.03 Ю 3 20 км 10/10 100 м
[Frnb Cs]
+2.3 +2.3 100 -2 -2 по сезону 1003.2 999.1
04 19.03 Ю 2 17 км н/о +2.3 +1.5 94 -1 -1 тепло 1003.7 999.6
05 19.03 Ю 3 20 км н/о +2.3 +0.9 90 -2 -2 тепло 1004.1 1000.0 0.1
06 19.03 Ю 3 20 км {ливн. осадки} 10/10 100 м
[Frnb Cs]
+2.0 +2.0 100 -2 -2 по сезону 1004.7 1000.6 +2.0 +3.7 0.1
07 19.03 Ю 3 20 км н/о +2.1 +0.7 90 -2 -2 тепло 1005.2 1001.1
08 19.03 н/о
09 19.03 ЮЗ 2 13 км слаб. ливневой дождь 10/10 200 м
[Sc Cs]
+2.2 +1.9 98 -2 1006.8 1002.7
10 19.03 ЮЗ 2 7000 м н/о +2.2 +1.5 95 -1 -1 тепло 1007.6 1003.5 0.2
11 19.03 ЮЗ 2 3900 м н/о +2.8 +2.2 96 -1 -1 тепло 1008.3 1004.2 0.1
12 19.03 З 3 2800 м морось {ливн. осадки} 10/10 50 м
[Frnb Ci ing]
+3.1 +1.9 92 -1 +1 по сезону 1009.0 1004.9 0.3
13 19.03 СЗ 2 12 км н/о +2.3 +2.3 100 -1 -1 тепло 1009.9 1005.7 0.1
14 19.03 СЗ 3 20 км н/о +2.3 +1.4 94 -2 -2 тепло 1010.9 1006.7
15 19.03 З 2 20 км слаб. ливневой дождь {морось} 10/10 100 м
[Sc Cs]
+1.7 +1.7 100 -2 -1 по сезону 1011.9 1007.7 0.3
16 19.03 З 3 14 км н/о +2.1 +1.8 98 -2 -2 тепло 1012.9 1008.7 0.5
17 19.03 СЗ 3 14 км н/о +1.8 +1.5 98 -3 -3 тепло 1013.9 1009.7
18 19.03 З 3 20 км {ливн. осадки, морось} 10/10 300 м
[Frnb As trans Ci ing]
+1.7 +1.7 100 -3 -3 по сезону 1014.9 1010.7 +1.7 +3.1 0.5
19 19.03 СЗ 3 20 км н/о +1.5 +0.7 94 -3 -3 тепло 1015.9 1011.8
20 19.03 СЗ 3 20 км н/о +1.3 +0.3 93 -3 -3 тепло 1016.7 1012.5
21 19.03 З 2 20 км 10/10 300 м
[Frnb As trans Ci fib]
+1.1 +1.1 100 -3 -3 по сезону 1017.5 1013.3
22 19.03 З 3 20 км н/о +0.9 -0.4 91 -4 -4 тепло 1017.9 1013.7
23 19.03 З 3 20 км н/о +0.7 -0.3 93 -4 -4 тепло 1018.8 1014.6
00 20.03 З 3 20 км 10/10 200 м
[Frnb Cs]
+0.4 +0.4 100 -4 -4 по сезону 1019.0 1014.8
01 20.03 З 3 14 км н/о +0.1 -0.5 96 -5 -5 тепло 1019.6 1015.4
02 20.03 З 4 20 км н/о -0.1 -1.9 88 -6 -6 по сезону 1020.1 1015.9
03 20.03 З 4 20 км {ливн. осадки} 10/10 300 м
[Frnb As trans Ci ing]
-0.4 -0.4 100 -6 -6 по сезону 1020.0 1015.7
04 20.03 З 5 20 км н/о -0.6 -2.7 86 -7 -7 тепло 1020.4 1016.1
05 20.03 З 4 20 км н/о -0.5 -2.7 85 -6 -6 по сезону 1020.5 1016.2
06 20.03 З 3 20 км {ливн. осадки} 8/8 300 м
[St As trans Cs]
+0.1 -0.7 94 -4 -4 по сезону 1020.5 1016.3 -0.7 +1.7
07 20.03 ЮЗ 3 20 км н/о +1.2 -1.6 82 -3 -3 тепло 1020.1 1015.9
08 20.03 н/о
09 20.03 ЮЗ 4 20 км 8/1 300 м
[Cu Sc As op]
+4.0 -0.7 71 +3 1019.0 1014.8
10 20.03 ЮЗ 6 20 км н/о +4.7 -2.6 59 0 0 тепло 1018.1 1014.0
11 20.03 ЮЗ 6 20 км н/о +5.2 -3.7 53 +1 +1 тепло 1017.6 1013.5
12 20.03 ЮЗ 5 20 км 10/3 300 м
[Cu Sc As op]
+5.1 -0.7 66 +1 +1 по сезону 1016.8 1012.7
13 20.03 ЮЗ 6 20 км н/о +4.4 -1.7 65 -1 -1 тепло 1015.5 1011.4
14 20.03 ЮЗ 6 20 км н/о +4.0 -1.0 70 -1 -1 тепло 1014.7 1010.6
15 20.03 ЮЗ 4 13 км слаб. ливневой дождь со снегом 10/10 200 м
[Cb cap Cs]
+1.6 -0.7 85 -4 -3 по сезону 1014.8 1010.6 0.7
16 20.03 ЮЗ 5 12 км н/о +1.7 +1.0 95 -4 -4 тепло 1014.7 1010.5 0.6
17 20.03 ЮЗ 4 16 км н/о +1.1 +0.8 98 -4 -4 по сезону 1014.9 1010.7 0.6
18 20.03 З 3 20 км в посл. час ливневой дождь 10/10 100 м
[Frnb Ci]
+2.0 +0.1 87 -3 -3 по сезону 1015.4 1011.3 +0.1 +5.5 1
19 20.03 З 4 20 км н/о +2.1 +1.7 97 -3 -3 тепло 1016.1 1011.9
20 20.03 З 3 20 км н/о +1.8 +1.5 98 -3 -3 тепло 1016.5 1012.3
21 20.03 З 3 20 км 6/6 600 м
[St As op Cs]
+1.3 +1.1 99 -3 -3 по сезону 1016.6 1012.4
22 20.03 ЮЗ 4 19 км н/о +1.3 +1.0 98 -4 -4 тепло 1017.0 1012.8
23 20.03 ЮЗ 3 20 км н/о +2.0 +1.2 94 -2 -2 тепло 1017.4 1013.2
00 21.03 ЮЗ 3 20 км 8/5 1500 м
[Ac und Cs]
+1.7 +1.1 96 -3 -3 по сезону 1017.6 1013.5
01 21.03 З 3 20 км н/о +1.3 +0.6 95 -3 -3 тепло 1017.9 1013.7
02 21.03 ЮЗ 2 20 км н/о +0.9 0.0 94 -3 -3 тепло 1018.0 1013.8
03 21.03 ЮЗ 3 20 км 3/3
[]
+0.6 +0.5 99 -4 -4 по сезону 1018.4 1014.2
04 21.03 ЮЗ 3 20 км н/о +0.5 -0.4 94 -4 -4 тепло 1018.5 1014.3
05 21.03 ЮЗ 3 20 км н/о +0.9 -0.2 92 -4 -4 тепло 1018.5 1014.3
06 21.03 Ю 2 20 км 8/4
[Ac As]
+1.2 +0.2 93 -2 -2 по сезону 1018.5 1014.3 +0.2 +2.2
07 21.03 Ю 2 20 км н/о +1.9 +0.9 93 -2 -2 тепло 1018.4 1014.2
08 21.03 н/о
09 21.03 Ю 3 20 км 9/0
[Ac cuf]
+4.3 +0.2 75 +1 +2 по сезону 1017.5 1013.4
10 21.03 ЮЗ 3 20 км н/о +5.4 +2.3 80 +2 +2 тепло 1016.8 1012.7
11 21.03 ЮЗ 4 20 км н/о +6.8 +2.7 75 +3 +3 тепло 1015.9 1011.8
12 21.03 ЮЗ 6 20 км 9/9 2000 м
[Ac und Cs]
+6.7 +0.2 63 +2 +3 по сезону 1015.4 1011.3
13 21.03 ЮЗ 5 19 км н/о +6.7 +3.1 78 +3 +3 тепло 1014.5 1010.4
14 21.03 ЮЗ 4 12 км н/о +5.3 +4.3 93 +1 +1 тепло 1014.2 1010.1
15 21.03 ЮЗ 4 4900 м слаб. дождь {морось} 10/10 100 м
[Sc Cs]
+4.8 +0.2 72 1013.6 1009.5 0.3
17 21.03 З 4 2400 м н/о +4.6 +4.5 99 0 0 тепло 1012.6 1008.5 0.1
18 21.03 З 4 3600 м слаб. морось {дождь} 10/10 50 м
[Frnb Ci ing]
+3.9 +1.2 83 -1 -1 по сезону 1012.8 1008.7 +1.2 +7.1 1
20 21.03 З 3 13 км н/о +3.1 +3.1 100 -1 -1 тепло 1013.7 1009.5
21 21.03 З 2 17 км в посл. час ливневой дождь {морось} 9/8 100 м
[Frnb Cs]
+3.2 +3.1 99 1013.7 1009.6 0.4
22 21.03 З 4 20 км н/о +3.6 +2.1 90 -1 -1 тепло 1015.1 1010.9
23 21.03 СЗ 4-8
{11}
20 км {ливн. осадки} 10/0
[]
+3.7 -0.6 73 -1 -1 тепло 1016.0 1011.8 +3.1 +7.1
00 22.03 З 3 20 км {дождь, морось} 10/10
[Ac cuf Ci sp]
+3.0 +2.9 99 1016.5
01 22.03 СЗ 5 20 км н/о +2.5 -3.9 63 -3 -3 тепло 1017.8 1013.6
02 22.03 СЗ 4 20 км н/о +1.9 -4.0 65 -3 -3 тепло 1019.0 1014.8
03 22.03 СЗ 4 20 км ясно +1.4 +1.3 99 -3 -3 по сезону 1019.9 1015.7
04 22.03 СЗ 5 20 км н/о +1.3 -4.3 66 -4 -4 тепло 1021.1 1016.9
05 22.03 СЗ 4 20 км н/о +1.2 -4.0 68 -4 -4 тепло 1022.3 1018.1
06 22.03 СЗ 5 20 км ясно +2.0 +1.1 94 -3 -2 по сезону 1023.1 1018.9 +1.1 +4.2
07 22.03 СЗ 4 20 км н/о +2.5 -4.2 61 -2 -2 тепло 1024.5 1020.3
08 22.03 СЗ 4
{10}
н/о +3.1 -4.0 60 -1 +2 тепло 1025.3 1021.1 +1.1 +4.2
09 22.03 СЗ 4 20 км 1/0
[]
+4.2 +1.1 80 +4 1026.0 1021.8
10 22.03 СЗ 5 20 км н/о +5.0 -4.1 52 +1 +1 тепло 1026.5 1022.3
11 22.03 З 4 20 км н/о +5.5 -5.0 47 +2 +2 тепло 1026.7 1022.5
12 22.03 З 5 20 км 1/0
[]
+5.6 +1.1 73 +2 +4 по сезону 1027.2 1023.0
13 22.03 СЗ 4 20 км н/о +5.4 -3.1 54 +2 +2 тепло 1027.7 1023.5
14 22.03 З 4 20 км н/о +5.3 -2.6 57 +2 +2 тепло 1027.6 1023.5
15 22.03 З 4 20 км 1/0
[]
+4.8 +1.1 77 +1 +2 по сезону 1028.1 1023.9
16 22.03 З 3 20 км н/о +3.6 -2.4 65 0 0 тепло 1028.5 1024.3
17 22.03 З 2 20 км н/о +2.5 -3.2 66 -0 -0 тепло 1028.7 1024.5
18 22.03 ЮЗ 1 20 км 3/0
[]
+1.6 +1.6 100 1028.9 1024.7 +1.6 +6.3
19 22.03 Ю 1 20 км н/о 0.0 -2.9 81 -2 -2 тепло 1028.6 1024.3
20 22.03 ЮЗ 2 20 км н/о +0.7 -2.7 78 -3 -3 тепло 1028.4 1024.2
21 22.03 З 2 20 км н/о +0.3 0.0 98 -3 -3 по сезону 1028.4 1024.2
22 22.03 ЮЗ 2 20 км н/о -0.4 -3.2 81 -4 -4 тепло 1027.7 1023.4
23 22.03 Ю 2 20 км н/о -1.0 -3.2 85 -5 -5 тепло 1027.4 1023.1
00 23.03 Ю 2 20 км 5/4
[Ac und Cc]
-1.0 -1.4 97 -5 -5 по сезону 1026.4 1022.1
01 23.03 н/о
02 23.03 Ю 4 20 км н/о -1.0 -4.0 80 -7 -7 по сезону 1024.9 1020.7 -1.4 +5.5
03 23.03 Ю 4 20 км 5/3
[]
-0.8 -1.4 96 -6 -6 по сезону 1023.7 1019.4
04 23.03 Ю 4 20 км н/о -0.1 -6.0 64 -5 -5 тепло 1022.6 1018.4
05 23.03 Ю 5 20 км н/о +0.9 -6.6 57 -4 -4 тепло 1021.5 1017.2
06 23.03 Ю 6 20 км 8/4
[Ac cuf Ci fib]
+1.6 -1.4 80 -4 -4 по сезону 1020.3 1016.1 -1.4 +1.7
07 23.03 Ю 7 20 км н/о +3.4 -7.8 44 -2 -2 тепло 1018.7 1014.5
08 23.03 н/о
09 23.03 ЮЗ 5 20 км 10/9 300 м
[St As trans Cs]
+3.8 -1.4 69 -1 +1 по сезону 1017.0 1012.8
10 23.03 ЮЗ 5 20 км н/о +4.4 -0.2 72 -0 -0 по сезону 1015.7 1011.5
11 23.03 н/о
12 23.03 ЮЗ 5 20 км 10/10 300 м
[Frnb As trans]
+4.3 -1.1 68 -1 +1 по сезону 1014.0 1009.9
13 23.03 ЮЗ 4 9000 м н/о +4.0 +3.5 97 -1 -1 тепло 1013.2 1009.1 0.3
14 23.03 ЮЗ 4 8000 м н/о +4.3 +3.8 97 -0 -0 тепло 1012.5 1008.3 0.4
15 23.03 ЮЗ 4 17 км в посл. час морось {ливн. осадки} 10/10 100 м
[Frnb Cs]
+4.6 -0.8 68 1012.0 1007.8 0.9
16 23.03 ЮЗ 5 15 км н/о +4.8 +4.4 97 -0 -0 тепло 1011.2 1007.1
17 23.03 ЮЗ 5 13 км н/о +5.0 +4.2 95 0 0 тепло 1010.7 1006.6
18 23.03 ЮЗ 4 10 км {ливн. осадки, морось} 8/8 100 м
[Frnb Cs]
+4.1 +1.5 83 -1 -1 по сезону 1010.4 1006.3 +1.5 +5.0
19 23.03 ЮЗ 3 11 км н/о +3.3 +2.7 96 -1 -1 тепло 1010.2 1006.1
20 23.03 ЮЗ 4 18 км н/о +3.0 +1.8 92 -2 -2 тепло 1010.0 1005.8
21 23.03 ЮЗ 4 20 км 9/3 200 м
[Frnb As trans]
+3.0 +2.7 98 -2 -2 по сезону 1009.7 1005.6
22 23.03 З 5 20 км н/о +3.8 -0.1 76 -1 -1 тепло 1009.4 1005.3
23 23.03 З 6 20 км н/о +3.7 -0.6 73 -2 -2 тепло 1009.2 1005.1
00 24.03 З 5 20 км ясно +3.3 +2.7 96 -2 -2 по сезону 1008.8 1004.7
01 24.03 З 6 20 км н/о +3.4 -0.5 76 -2 -2 тепло 1008.6 1004.5
02 24.03 З 6 20 км н/о +3.3 -0.3 77 -2 -2 тепло 1008.6 1004.5
03 24.03 З 6 20 км 3/3 600 м
[St Ac trans Ci ing]
+2.8 +2.7 99 -3 -3 по сезону 1008.7 1004.5
04 24.03 З 5 20 км н/о +2.4 -0.9 79 -3 -3 тепло 1009.2 1005.1
05 24.03 З 4 20 км н/о +2.4 -1.4 76 -2 -2 тепло 1009.7 1005.5
06 24.03 З 5 20 км ясно +3.2 +2.2 93 -2 -1 по сезону 1010.1 1005.9 +2.2 +4.1
07 24.03 З 5 20 км н/о +3.8 -2.1 65 -1 -1 тепло 1010.6 1006.5
08 24.03 н/о
09 24.03 З 6 20 км 1/1 1000 м
[St Ac lent]
+4.7 +2.2 84 +2 1010.4 1006.3
10 24.03 З 7 20 км н/о +4.6 -2.2 61 -1 -1 тепло 1010.2 1006.1
11 24.03 З 7 20 км н/о +4.7 -3.7 54 -0 -0 тепло 1010.2 1006.1
12 24.03 З 8 20 км 1/1 1000 м
[St Ac und]
+4.9 +2.2 83 -1 1010.1 1006.0
13 24.03 З 8 20 км н/о +4.6 -3.2 57 -1 -1 тепло 1010.2 1006.0
14 24.03 З 7 20 км н/о +5.4 -4.1 50 +1 +1 тепло 1010.0 1005.9
15 24.03 З 8 20 км 3/3
[]
+5.1 +2.2 82 1009.3 1005.2
16 24.03 З 5 20 км н/о +4.2 -2.6 61 -0 -0 тепло 1008.7 1004.6
17 24.03 З 5 20 км н/о +3.2 -2.1 68 -2 -2 тепло 1008.0 1003.9
18 24.03 З 4 20 км 1/1
[]
+2.8 +2.8 100 -2 -2 по сезону 1007.5 1003.4
19 24.03 З 4 20 км н/о +2.5 -1.0 78 -2 -2 тепло 1007.3 1003.2
20 24.03 З 4 20 км н/о +2.4 -0.7 80 -2 -2 по сезону 1006.9 1002.8

 

Местоположение метеостанции Таллин (Эстония): широта 59.47 долгота 24.82 высота над уровнем моря 34 м.

В архиве по умолчанию представлена погода в Таллине за последнюю неделю. Архивные данные за месяц целиком и за предыдущие месяцы, начиная с января 2011 года, Вы можете получить, выбрав интересующий диапазон дат из раскрывающегося списка и нажав кнопку "Ввод!".


*Определитесь, кто Вы:
робот инопланетянин человек

Внимание! Время в таблицах - всемирное. Для получения местного времени необходимо прибавить поправку, которая равна 2 ч.

Смотрите также архив погоды в соседних городах и на ближайших метеорологических станциях:

Погода в Пакри (Эстония) (46 км)
Погода на Хельсинском маяке (Финляндия) (54 км)
Погода в Куусику (Эстония) (56 км)
Погода на Острове Мякилюото (Финляндия) (57 км)
Погода на Острове Багаскар (Финляндия) (68 км)
Погода на Острове Хармая (Финляндия) (71 км)
Погода на Маяке Kalbadagrund (Финляндия) (73 км)
Погода в Эспо Тапиола (Финляндия) (79 км)
Погода в Хельсинки Кайсаниеми (Финляндия) (79 км)
Погода на Юссаро (Финляндия) (80 км)

Пояснения к столбцам:

Ветер - указаны скорость ветра в м/с - средняя за 10 мин, порывы в срок и между сроками (в фигурных скобках) и направление, откуда дует ветер: С - северный, СВ - северо-восточный, В - восточный, ЮВ - юго-восточный, Ю - южный, ЮЗ - юго-западный, З - западный, СЗ - северо-западный.
Видимость - горизонтальная дальность видимости в метрах или километрах. При видимости от 1 до 10 км при отсутствии осадков обычно наблюдается дымка, при ухудшении видимости до 1 км и менее - туман. В сухую погоду видимость может ухудшаться дымом, пылью или мглою.
Явления - указаны атмосферные явления, наблюдавшиеся в срок или в последний час перед сроком; фигурными скобками обозначены явления, наблюдавшиеся между сроками (за 1-3 часа до срока); квадратными скобками обозначены град или гололедные отложения с указанием их диаметра в мм.
Облачность - указаны через наклонную черту общая и нижняя облачность в баллах и высота нижней границы облаков в метрах; квадратными скобками обозначены формы облаков: Ci - перистые, Cs - перисто-слоистые, Cc - перисто-кучевые, Ac - высококучевые, As - высокослоистые, Sc - слоисто-кучевые, Ns - слоисто-дождевые, Cu - кучевые, Cb - кучево-дождевые. Подробнее классификацию облаков см. в Атласе облаков (PDF).
T - Температура воздуха - температура, измеренная на высоте 2 м над землей.
Td - Температура точки росы - температура, при понижении до которой содержащийся в воздухе водяной пар достигнет насыщения.
f - Относительная влажность воздуха - влажноcть воздуха, измеренная на высоте 2 м над землей.
Te - Эффективная температура - температура, которую ощущает одетый по сезону человек в тени. Характеристика душности погоды. При расчете учитывается влияние влажности воздуха и скорости ветра на теплоощущения человека.
Tes - Эффективная температура на солнце - температура, которую ощущает человек, с поправкой на солнечный нагрев. Характеристика знойности погоды. Зависит от высоты солнца над горизонтом, облачности и скорости ветра. Ночью, в пасмурную погоду, а также при ветре 12 м/с и более поправка равна нулю.
P - Атмосферное давление - приведенное к уровню моря атмосферное давление.
Po - Атмосферное давление - измеренное на уровне метеостанции атмосферное давление.
Tmin - Минимальная температура - минимум температуры воздуха на высоте 2 м над землей.
Tmax - Максимальная температура - максимум температуры воздуха на высоте 2 м над землей.
R - Количество осадков - Количество выпавших осадков за период времени, мм. При наведении курсора мыши на число - период времени, за который выпало указанное количество осадков.
R24 - Количество осадков - Количество выпавших осадков за 24 часа, мм.
S - Снежный покров - Высота снежного покрова, см. При наведении курсора мыши на число - состояние снежного покрова и степень покрытия местности в баллах.